Find Starlink 35032

NORAD ID: 65382 Int'l Des: 2025-191 Owner: SPXS Country: US Constellation: starlink operational
LEOCIRCULARRETROGRADESSO

現在のビュー

3D地球を読み込み中...

About Starlink 35032

Starlink 35032 (NORAD 65382) is a starlink constellation satellite (v2 mini) launched Aug 30, 2025 by SPXS of US. It operates in LEO, CIRCULAR, RETROGRADE, SSO orbit with a mass of 575.00 kg.

Starlink 35032について

説明を読み込み中...

次回通過

Passes for default location (London). Set your location on the main map for personalized predictions.

高度履歴

Loading altitude history...

軌道要素

1 65382U 25191D 26164.88812299 .00003193 00000-0 22510-3 0 9997
2 65382 97.3649 35.4482 0003302 87.4605 272.7000 15.05661049 44742
Epoch: Jun 13, 2026 • Age: 3 hours

現在のステータス

高度 558.7 km
速度 7.59 km/s
衛星直下点 65.86°N, 104.57°E
打ち上げ日 Aug 30, 2025
運用期間 0.7 years
タイプ internet

技術仕様

分類 Payload
質量 575.00 kg
乾燥質量 530.00 kg
総質量 575.00 kg
長さ 0.30 m
直径 4.10 m
スパン 29.00 m
形状 Box + pan
製造者 SPXS
バスタイプ Starlink V2MO
フェーズステータス In Orbit
所有者/国 SPXS/US

Most Searched